Time,TemperatureF,DewpointF,PressureIn,WindDirection,WindDirectionDegrees,WindSpeedMPH,WindSpeedGustMPH,Humidity,HourlyPrecipIn,Conditions,Clouds,dailyrainin,SoftwareType,DateUTC
2013-07-18 00:01:00,71.6,68.5,30.06,North,0,1.7,-999.0,90,-99.99,,,0.00,Acu-Link.com,2013-07-18 05:01:00,
2013-07-18 00:16:00,72.0,67.6,30.06,South,180,0.0,-999.0,86,-99.99,,,0.00,Acu-Link.com,2013-07-18 05:16:00,
2013-07-18 00:32:00,71.8,67.7,30.06,ESE,112,0.0,-999.0,87,-99.99,,,0.00,Acu-Link.com,2013-07-18 05:32:00,
2013-07-18 00:47:00,71.4,67.3,30.06,NE,45,0.0,-999.0,87,-99.99,,,0.00,Acu-Link.com,2013-07-18 05:47:00,
2013-07-18 01:02:00,71.2,67.8,30.06,WSW,247,0.0,-999.0,89,-99.99,,,0.00,Acu-Link.com,2013-07-18 06:02:00,
2013-07-18 01:17:00,71.1,67.7,30.05,East,90,0.0,-999.0,89,-99.99,,,0.00,Acu-Link.com,2013-07-18 06:17:00,
2013-07-18 01:32:00,70.5,68.1,30.06,NE,45,0.0,-999.0,92,-99.99,,,0.00,Acu-Link.com,2013-07-18 06:32:00,
2013-07-18 01:48:00,70.5,68.1,30.05,NE,45,0.0,-999.0,92,-99.99,,,0.00,Acu-Link.com,2013-07-18 06:48:00,
2013-07-18 02:03:00,70.3,67.9,30.04,SE,135,0.0,-999.0,92,-99.99,,,0.00,Acu-Link.com,2013-07-18 07:03:00,
2013-07-18 02:18:00,70.3,68.2,30.05,West,270,0.0,-999.0,93,-99.99,,,0.00,Acu-Link.com,2013-07-18 07:18:00,
2013-07-18 02:34:00,70.2,67.8,30.04,NNE,22,0.0,-999.0,92,-99.99,,,0.00,Acu-Link.com,2013-07-18 07:34:00,
2013-07-18 02:49:00,69.8,67.7,30.04,NE,45,0.0,-999.0,93,-99.99,,,0.00,Acu-Link.com,2013-07-18 07:49:00,
2013-07-18 03:04:00,69.4,67.3,30.03,East,90,0.0,-999.0,93,-99.99,,,0.00,Acu-Link.com,2013-07-18 08:04:00,
2013-07-18 03:20:00,69.3,67.5,30.03,NNE,22,0.0,-999.0,94,-99.99,,,0.00,Acu-Link.com,2013-07-18 08:20:00,
2013-07-18 03:35:00,69.1,67.3,30.03,WSW,247,0.0,-999.0,94,-99.99,,,0.00,Acu-Link.com,2013-07-18 08:35:00,
2013-07-18 03:50:00,68.9,67.1,30.03,SSE,157,0.0,-999.0,94,-99.99,,,0.00,Acu-Link.com,2013-07-18 08:50:00,
2013-07-18 04:05:00,68.5,67.0,30.02,NE,45,0.0,-999.0,95,-99.99,,,0.00,Acu-Link.com,2013-07-18 09:05:00,
2013-07-18 04:20:00,68.0,66.5,30.02,NE,45,0.0,-999.0,95,-99.99,,,0.00,Acu-Link.com,2013-07-18 09:20:00,
2013-07-18 04:35:00,67.8,66.6,30.02,NE,45,0.0,-999.0,96,-99.99,,,0.00,Acu-Link.com,2013-07-18 09:35:00,
2013-07-18 04:50:00,67.8,66.9,30.03,NE,45,0.0,-999.0,97,-99.99,,,0.00,Acu-Link.com,2013-07-18 09:50:00,
2013-07-18 05:06:00,67.8,66.9,30.02,NE,45,0.0,-999.0,97,-99.99,,,0.00,Acu-Link.com,2013-07-18 10:06:00,
2013-07-18 05:21:00,67.6,66.7,30.03,ESE,112,0.0,-999.0,97,-99.99,,,0.00,Acu-Link.com,2013-07-18 10:21:00,
2013-07-18 05:36:00,67.5,66.9,30.03,NE,45,0.0,-999.0,98,-99.99,,,0.00,Acu-Link.com,2013-07-18 10:36:00,
2013-07-18 05:52:00,67.5,66.9,30.03,NE,45,0.0,-999.0,98,-99.99,,,0.00,Acu-Link.com,2013-07-18 10:52:00,
2013-07-18 06:07:00,67.5,66.9,30.03,West,270,0.0,-999.0,98,-99.99,,,0.00,Acu-Link.com,2013-07-18 11:07:00,
2013-07-18 06:22:00,67.5,67.2,30.03,SE,135,0.0,-999.0,99,-99.99,,,0.00,Acu-Link.com,2013-07-18 11:22:00,
2013-07-18 06:37:00,67.5,66.9,30.04,NNE,22,0.0,-999.0,98,-99.99,,,0.00,Acu-Link.com,2013-07-18 11:37:00,
2013-07-18 06:53:00,67.6,67.0,30.04,East,90,0.0,-999.0,98,-99.99,,,0.00,Acu-Link.com,2013-07-18 11:53:00,
2013-07-18 07:08:00,68.5,68.2,30.04,East,90,0.0,-999.0,99,-99.99,,,0.00,Acu-Link.com,2013-07-18 12:08:00,
2013-07-18 07:23:00,70.3,70.0,30.04,SSW,202,0.0,-999.0,99,-99.99,,,0.00,Acu-Link.com,2013-07-18 12:23:00,
2013-07-18 07:38:00,72.3,72.0,30.05,SE,135,3.7,-999.0,99,-99.99,,,0.00,Acu-Link.com,2013-07-18 12:38:00,
2013-07-18 07:54:00,74.5,72.0,30.04,SSE,157,2.7,-999.0,92,-99.99,,,0.00,Acu-Link.com,2013-07-18 12:54:00,
2013-07-18 08:09:00,75.7,72.2,30.04,SE,135,2.2,-999.0,89,-99.99,,,0.00,Acu-Link.com,2013-07-18 13:09:00,
2013-07-18 08:24:00,77.2,71.6,30.04,ESE,112,2.7,-999.0,83,-99.99,,,0.00,Acu-Link.com,2013-07-18 13:24:00,
2013-07-18 08:39:00,78.4,71.7,30.04,SSE,157,2.2,-999.0,80,-99.99,,,0.00,Acu-Link.com,2013-07-18 13:39:00,
2013-07-18 08:55:00,80.1,72.2,30.04,ESE,112,3.7,-999.0,77,-99.99,,,0.00,Acu-Link.com,2013-07-18 13:55:00,
2013-07-18 09:10:00,82.0,72.5,30.04,SSE,157,1.7,-999.0,73,-99.99,,,0.00,Acu-Link.com,2013-07-18 14:10:00,
2013-07-18 09:25:00,84.4,71.8,30.03,ESE,112,1.1,-999.0,66,-99.99,,,0.00,Acu-Link.com,2013-07-18 14:25:00,
2013-07-18 09:41:00,85.8,70.8,30.03,West,270,1.7,-999.0,61,-99.99,,,0.00,Acu-Link.com,2013-07-18 14:41:00,
2013-07-18 09:56:00,85.1,69.1,30.03,West,270,1.7,-999.0,59,-99.99,,,0.00,Acu-Link.com,2013-07-18 14:56:00,
2013-07-18 10:11:00,86.4,69.3,30.03,West,270,2.7,-999.0,57,-99.99,,,0.00,Acu-Link.com,2013-07-18 15:11:00,
2013-07-18 10:27:00,87.6,71.0,30.03,West,270,2.2,-999.0,58,-99.99,,,0.00,Acu-Link.com,2013-07-18 15:27:00,
2013-07-18 10:42:00,86.7,70.1,30.02,West,270,1.7,-999.0,58,-99.99,,,0.00,Acu-Link.com,2013-07-18 15:42:00,
2013-07-18 10:57:00,88.9,69.5,30.02,WNW,292,1.7,-999.0,53,-99.99,,,0.00,Acu-Link.com,2013-07-18 15:57:00,
2013-07-18 11:12:00,88.7,69.9,30.02,SSE,157,1.7,-999.0,54,-99.99,,,0.00,Acu-Link.com,2013-07-18 16:12:00,
2013-07-18 11:27:00,86.9,67.7,30.02,South,180,1.7,-999.0,53,-99.99,,,0.00,Acu-Link.com,2013-07-18 16:27:00,
2013-07-18 11:43:00,86.4,69.8,30.01,NW,315,0.0,-999.0,58,-99.99,,,0.00,Acu-Link.com,2013-07-18 16:43:00,
2013-07-18 11:58:00,91.4,69.5,30.01,NNE,22,2.7,-999.0,49,-99.99,,,0.00,Acu-Link.com,2013-07-18 16:58:00,
2013-07-18 12:13:00,91.9,68.7,30.00,ESE,112,2.7,-999.0,47,-99.99,,,0.00,Acu-Link.com,2013-07-18 17:13:00,
2013-07-18 12:28:00,93.2,67.3,30.00,NNE,22,2.2,-999.0,43,-99.99,,,0.00,Acu-Link.com,2013-07-18 17:28:00,
2013-07-18 12:44:00,92.1,67.7,30.00,East,90,1.7,-999.0,45,-99.99,,,0.00,Acu-Link.com,2013-07-18 17:44:00,
2013-07-18 12:59:00,94.1,67.5,29.99,SE,135,6.8,-999.0,42,-99.99,,,0.00,Acu-Link.com,2013-07-18 17:59:00,
2013-07-18 13:14:00,93.6,68.4,29.98,ESE,112,1.7,-999.0,44,-99.99,,,0.00,Acu-Link.com,2013-07-18 18:14:00,
2013-07-18 13:29:00,93.4,66.8,29.97,NNW,337,2.2,-999.0,42,-99.99,,,0.00,Acu-Link.com,2013-07-18 18:29:00,
2013-07-18 13:44:00,94.1,68.1,29.96,East,90,1.7,-999.0,43,-99.99,,,0.00,Acu-Link.com,2013-07-18 18:44:00,
2013-07-18 14:00:00,95.0,68.9,29.96,South,180,1.7,-999.0,43,-99.99,,,0.00,Acu-Link.com,2013-07-18 19:00:00,
2013-07-18 14:15:00,96.1,67.8,29.95,ENE,67,2.7,-999.0,40,-99.99,,,0.00,Acu-Link.com,2013-07-18 19:15:00,
2013-07-18 14:30:00,90.9,67.2,29.94,West,270,1.7,-999.0,46,-99.99,,,0.00,Acu-Link.com,2013-07-18 19:30:00,
2013-07-18 14:45:00,92.8,67.0,29.93,West,270,2.2,-999.0,43,-99.99,,,0.00,Acu-Link.com,2013-07-18 19:45:00,
2013-07-18 15:01:00,92.3,69.1,29.92,WNW,292,2.7,-999.0,47,-99.99,,,0.00,Acu-Link.com,2013-07-18 20:01:00,
2013-07-18 15:16:00,92.8,68.3,29.91,ESE,112,1.1,-999.0,45,-99.99,,,0.00,Acu-Link.com,2013-07-18 20:16:00,
2013-07-18 15:31:00,94.6,69.3,29.91,South,180,1.7,-999.0,44,-99.99,,,0.00,Acu-Link.com,2013-07-18 20:31:00,
2013-07-18 15:46:00,95.2,68.4,29.90,WSW,247,1.7,-999.0,42,-99.99,,,0.00,Acu-Link.com,2013-07-18 20:46:00,
2013-07-18 16:01:00,94.1,68.8,29.90,South,180,2.7,-999.0,44,-99.99,,,0.00,Acu-Link.com,2013-07-18 21:01:00,
2013-07-18 16:17:00,92.7,69.5,29.89,South,180,3.2,-999.0,47,-99.99,,,0.00,Acu-Link.com,2013-07-18 21:17:00,
2013-07-18 16:32:00,93.7,69.1,29.89,NNE,22,2.7,-999.0,45,-99.99,,,0.00,Acu-Link.com,2013-07-18 21:32:00,
2013-07-18 16:47:00,92.5,69.3,29.89,SW,225,3.2,-999.0,47,-99.99,,,0.00,Acu-Link.com,2013-07-18 21:47:00,
2013-07-18 17:02:00,92.3,67.2,29.88,West,270,1.1,-999.0,44,-99.99,,,0.00,Acu-Link.com,2013-07-18 22:02:00,
2013-07-18 17:17:00,91.8,67.4,29.88,SSW,202,1.7,-999.0,45,-99.99,,,0.00,Acu-Link.com,2013-07-18 22:17:00,
2013-07-18 17:32:00,92.8,69.6,29.88,West,270,1.1,-999.0,47,-99.99,,,0.00,Acu-Link.com,2013-07-18 22:32:00,
2013-07-18 17:47:00,92.7,68.8,29.88,West,270,2.7,-999.0,46,-99.99,,,0.00,Acu-Link.com,2013-07-18 22:47:00,
2013-07-18 18:03:00,92.3,69.1,29.87,West,270,2.2,-999.0,47,-99.99,,,0.00,Acu-Link.com,2013-07-18 23:03:00,
2013-07-18 18:18:00,91.6,69.1,29.87,West,270,0.0,-999.0,48,-99.99,,,0.00,Acu-Link.com,2013-07-18 23:18:00,
2013-07-18 18:33:00,91.2,69.9,29.87,WNW,292,0.0,-999.0,50,-99.99,,,0.00,Acu-Link.com,2013-07-18 23:33:00,
2013-07-18 18:48:00,90.9,70.2,29.87,South,180,0.0,-999.0,51,-99.99,,,0.00,Acu-Link.com,2013-07-18 23:48:00,
2013-07-18 19:03:00,90.5,69.9,29.87,WSW,247,0.0,-999.0,51,-99.99,,,0.00,Acu-Link.com,2013-07-19 00:03:00,
2013-07-18 19:19:00,89.8,70.9,29.86,South,180,0.0,-999.0,54,-99.99,,,0.00,Acu-Link.com,2013-07-19 00:19:00,
2013-07-18 19:34:00,89.1,70.8,29.87,SSW,202,0.0,-999.0,55,-99.99,,,0.00,Acu-Link.com,2013-07-19 00:34:00,
2013-07-18 19:49:00,88.3,70.1,29.88,South,180,0.0,-999.0,55,-99.99,,,0.00,Acu-Link.com,2013-07-19 00:49:00,
2013-07-18 20:04:00,87.8,71.7,29.88,SSW,202,0.0,-999.0,59,-99.99,,,0.00,Acu-Link.com,2013-07-19 01:04:00,
2013-07-18 20:20:00,86.9,70.8,29.87,WSW,247,0.0,-999.0,59,-99.99,,,0.00,Acu-Link.com,2013-07-19 01:20:00,
2013-07-18 20:35:00,86.0,71.9,29.87,WNW,292,0.0,-999.0,63,-99.99,,,0.00,Acu-Link.com,2013-07-19 01:35:00,
2013-07-18 20:50:00,84.2,71.1,29.87,SSE,157,0.0,-999.0,65,-99.99,,,0.00,Acu-Link.com,2013-07-19 01:50:00,
2013-07-18 21:05:00,83.1,70.5,29.87,ESE,112,0.0,-999.0,66,-99.99,,,0.00,Acu-Link.com,2013-07-19 02:05:00,
2013-07-18 21:20:00,81.5,71.2,29.88,NE,45,0.0,-999.0,71,-99.99,,,0.00,Acu-Link.com,2013-07-19 02:20:00,
2013-07-18 21:36:00,81.0,70.7,29.88,SE,135,0.0,-999.0,71,-99.99,,,0.00,Acu-Link.com,2013-07-19 02:36:00,
2013-07-18 21:51:00,79.9,70.0,29.88,NNW,337,0.0,-999.0,72,-99.99,,,0.00,Acu-Link.com,2013-07-19 02:51:00,
2013-07-18 22:06:00,79.2,70.6,29.88,ESE,112,0.0,-999.0,75,-99.99,,,0.00,Acu-Link.com,2013-07-19 03:06:00,
2013-07-18 22:22:00,79.3,69.9,29.88,SSE,157,1.7,-999.0,73,-99.99,,,0.00,Acu-Link.com,2013-07-19 03:22:00,
2013-07-18 22:37:00,80.1,69.0,29.89,ESE,112,3.2,-999.0,69,-99.99,,,0.00,Acu-Link.com,2013-07-19 03:37:00,
2013-07-18 22:52:00,80.1,68.1,29.88,ESE,112,2.2,-999.0,67,-99.99,,,0.00,Acu-Link.com,2013-07-19 03:52:00,
2013-07-18 23:07:00,79.7,68.2,29.88,SSE,157,2.2,-999.0,68,-99.99,,,0.00,Acu-Link.com,2013-07-19 04:07:00,
2013-07-18 23:23:00,79.0,67.5,29.88,SE,135,2.7,-999.0,68,-99.99,,,0.00,Acu-Link.com,2013-07-19 04:23:00,
2013-07-18 23:38:00,78.8,67.7,29.88,South,180,2.2,-999.0,69,-99.99,,,0.00,Acu-Link.com,2013-07-19 04:38:00,
2013-07-18 23:53:00,78.8,67.7,29.88,South,180,3.2,-999.0,69,-99.99,,,0.00,Acu-Link.com,2013-07-19 04:53:00,